Terug naar catalogus

FENGYUN 1C DEB

ActiefLEO
NORAD 32456·DEBRIS·🇨🇳 China

Gelanceerd May 10, 1999 vanaf Taiyuan Satellite Launch Center

Loading…

Volgende Passages (komende 24 uur)

TLE

VerouderdSource: Space-Track

Epoch: Sep 4, 2026, 21:15 UTC

1 32456U 99025DBU 26247.88596344  .00000686  00000-0  98080-3 0  9991
2 32456 103.6635 122.8402 0377312  41.7610 321.1657 13.36153930641704

Volg FENGYUN 1C DEB in realtime met AllMySat

Download on the App Store